Time,TemperatureF,DewpointF,PressureIn,WindDirection,WindDirectionDegrees,WindSpeedMPH,WindSpeedGustMPH,Humidity,HourlyPrecipIn,Conditions,Clouds,dailyrainin,SoftwareType,DateUTC
2013-01-25 00:01:00,11.3,-8.9,27.89,North,2,0.0,0.0,39,0.00,CLR,,0.00,WeatherDisplay:10.37,2013-01-25 05:01:00,
2013-01-25 00:02:00,11.1,-9.1,27.89,North,2,0.0,0.0,39,0.00,CLR,,0.00,WeatherDisplay:10.37,2013-01-25 05:02:00,
2013-01-25 00:03:00,11.1,-9.1,27.89,North,2,0.0,0.0,39,0.00,CLR,,0.00,WeatherDisplay:10.37,2013-01-25 05:03:00,
2013-01-25 00:08:00,10.9,-9.2,27.89,North,2,0.0,0.0,39,0.00,CLR,,0.00,WeatherDisplay:10.37,2013-01-25 05:08:00,
2013-01-25 00:13:00,11.1,-9.1,27.89,North,2,0.0,0.0,39,0.00,CLR,,0.00,WeatherDisplay:10.37,2013-01-25 05:13:00,
2013-01-25 00:18:00,11.1,-9.1,27.89,North,2,0.0,0.0,39,0.00,CLR,,0.00,WeatherDisplay:10.37,2013-01-25 05:18:00,
2013-01-25 00:23:00,11.3,-8.9,27.89,North,2,0.0,0.0,39,0.00,CLR,,0.00,WeatherDisplay:10.37,2013-01-25 05:23:00,
2013-01-25 00:28:00,11.3,-8.9,27.89,North,2,0.0,0.0,39,0.00,CLR,,0.00,WeatherDisplay:10.37,2013-01-25 05:28:00,
2013-01-25 00:33:00,11.3,-8.9,27.89,North,2,0.0,0.0,39,0.00,CLR,,0.00,WeatherDisplay:10.37,2013-01-25 05:33:00,
2013-01-25 00:38:00,11.7,-8.6,27.89,North,2,0.0,0.0,39,0.00,CLR,,0.00,WeatherDisplay:10.37,2013-01-25 05:38:00,
2013-01-25 00:43:00,11.7,-8.6,27.89,North,2,0.0,0.0,39,0.00,CLR,,0.00,WeatherDisplay:10.37,2013-01-25 05:43:00,
2013-01-25 00:48:00,11.8,-8.4,27.89,North,2,0.0,0.0,39,0.00,CLR,,0.00,WeatherDisplay:10.37,2013-01-25 05:48:00,
2013-01-25 00:53:00,11.7,-8.6,27.89,North,2,0.0,0.0,39,0.00,CLR,,0.00,WeatherDisplay:10.37,2013-01-25 05:53:00,
2013-01-25 00:58:00,11.7,-8.6,27.89,North,2,0.0,0.0,39,0.00,CLR,,0.00,WeatherDisplay:10.37,2013-01-25 05:58:00,
2013-01-25 01:03:00,11.3,-8.9,27.89,North,2,0.0,0.0,39,0.00,CLR,,0.00,WeatherDisplay:10.37,2013-01-25 06:03:00,
2013-01-25 01:08:00,11.3,-8.9,27.89,North,2,0.0,0.0,39,0.00,CLR,,0.00,WeatherDisplay:10.37,2013-01-25 06:08:00,
2013-01-25 01:13:00,11.3,-8.9,27.89,North,2,0.0,0.0,39,0.00,CLR,,0.00,WeatherDisplay:10.37,2013-01-25 06:13:00,
2013-01-25 01:18:00,11.3,-8.9,27.89,North,2,0.0,0.0,39,0.00,CLR,,0.00,WeatherDisplay:10.37,2013-01-25 06:18:00,
2013-01-25 01:23:00,11.1,-9.1,27.89,North,2,0.0,0.0,39,0.00,CLR,,0.00,WeatherDisplay:10.37,2013-01-25 06:23:00,
2013-01-25 01:28:00,11.3,-8.9,27.89,North,2,0.0,0.0,39,0.00,CLR,,0.00,WeatherDisplay:10.37,2013-01-25 06:28:00,
2013-01-25 01:33:00,11.3,-8.9,27.89,North,2,0.0,0.0,39,0.00,CLR,,0.00,WeatherDisplay:10.37,2013-01-25 06:33:00,
2013-01-25 01:38:00,11.1,-9.1,27.89,North,2,0.0,0.0,39,0.00,CLR,,0.00,WeatherDisplay:10.37,2013-01-25 06:38:00,
2013-01-25 01:43:00,11.3,-8.9,27.89,North,2,0.0,0.0,39,0.00,CLR,,0.00,WeatherDisplay:10.37,2013-01-25 06:43:00,
2013-01-25 01:48:00,11.1,-9.1,27.89,North,2,0.0,0.0,39,0.00,CLR,,0.00,WeatherDisplay:10.37,2013-01-25 06:48:00,
2013-01-25 01:53:00,11.1,-9.1,27.89,North,2,0.0,0.0,39,0.00,CLR,,0.00,WeatherDisplay:10.37,2013-01-25 06:53:00,
2013-01-25 01:58:00,11.3,-8.9,27.89,North,2,0.0,0.0,39,0.00,CLR,,0.00,WeatherDisplay:10.37,2013-01-25 06:58:00,
2013-01-25 02:03:00,11.3,-8.9,27.89,North,2,0.0,0.0,39,0.00,CLR,,0.00,WeatherDisplay:10.37,2013-01-25 07:03:00,
2013-01-25 02:08:00,11.3,-8.9,27.89,North,2,0.0,0.0,39,0.00,CLR,,0.00,WeatherDisplay:10.37,2013-01-25 07:08:00,
2013-01-25 02:13:00,11.3,-8.9,27.89,North,2,0.0,0.0,39,0.00,CLR,,0.00,WeatherDisplay:10.37,2013-01-25 07:13:00,
2013-01-25 02:18:00,11.5,-8.7,27.89,North,2,0.0,0.0,39,0.00,CLR,,0.00,WeatherDisplay:10.37,2013-01-25 07:18:00,
2013-01-25 02:23:00,11.7,-8.6,27.89,North,10,0.0,0.0,39,0.00,CLR,,0.00,WeatherDisplay:10.37,2013-01-25 07:23:00,
2013-01-25 02:28:00,11.8,-8.4,27.89,North,10,0.0,0.0,39,0.00,CLR,,0.00,WeatherDisplay:10.37,2013-01-25 07:28:00,
2013-01-25 02:33:00,11.8,-8.4,27.89,North,10,0.0,0.0,39,0.00,CLR,,0.00,WeatherDisplay:10.37,2013-01-25 07:33:00,
2013-01-25 02:38:00,12.0,-8.2,27.89,North,10,0.0,0.0,39,0.00,CLR,,0.00,WeatherDisplay:10.37,2013-01-25 07:38:00,
2013-01-25 02:43:00,12.0,-8.2,27.89,North,10,0.0,0.0,39,0.00,CLR,,0.00,WeatherDisplay:10.37,2013-01-25 07:43:00,
2013-01-25 02:48:00,12.0,-8.2,27.89,North,10,0.0,0.0,39,0.00,CLR,,0.00,WeatherDisplay:10.37,2013-01-25 07:48:00,
2013-01-25 02:53:00,12.0,-8.2,27.89,NNE,12,0.0,0.0,39,0.00,CLR,,0.00,WeatherDisplay:10.37,2013-01-25 07:53:00,
2013-01-25 02:58:00,12.2,-8.1,27.89,ESE,114,2.2,0.0,39,0.00,CLR,,0.00,WeatherDisplay:10.37,2013-01-25 07:58:00,
2013-01-25 03:03:00,12.2,-8.1,27.89,ESE,114,0.0,0.0,39,0.00,CLR,,0.00,WeatherDisplay:10.37,2013-01-25 08:03:00,
2013-01-25 03:08:00,12.2,-8.1,27.89,ESE,110,0.0,0.0,39,0.00,CLR,,0.00,WeatherDisplay:10.37,2013-01-25 08:08:00,
2013-01-25 03:13:00,12.2,-8.1,27.89,ESE,114,0.0,0.0,39,0.00,CLR,,0.00,WeatherDisplay:10.37,2013-01-25 08:13:00,
2013-01-25 03:18:00,12.2,-8.1,27.89,ESE,114,2.3,0.0,39,0.00,CLR,,0.00,WeatherDisplay:10.37,2013-01-25 08:18:00,
2013-01-25 03:23:00,12.2,-8.1,27.89,ESE,114,0.0,0.0,39,0.00,CLR,,0.00,WeatherDisplay:10.37,2013-01-25 08:23:00,
2013-01-25 03:28:00,12.4,-7.9,27.89,SE,125,2.3,0.0,39,0.00,CLR,,0.00,WeatherDisplay:10.37,2013-01-25 08:28:00,
2013-01-25 03:33:00,12.2,-8.1,27.89,SE,126,2.3,2.3,39,0.00,CLR,,0.00,WeatherDisplay:10.37,2013-01-25 08:33:00,
2013-01-25 03:38:00,12.2,-8.1,27.89,SE,127,2.3,0.0,39,0.00,CLR,,0.00,WeatherDisplay:10.37,2013-01-25 08:38:00,
2013-01-25 03:43:00,12.2,-8.1,27.89,SE,126,0.0,0.0,39,0.00,CLR,,0.00,WeatherDisplay:10.37,2013-01-25 08:43:00,
2013-01-25 03:48:00,12.2,-8.1,27.89,SE,134,0.0,0.0,39,0.00,CLR,,0.00,WeatherDisplay:10.37,2013-01-25 08:48:00,
2013-01-25 03:53:00,12.4,-7.9,27.89,SE,134,0.0,0.0,39,0.00,CLR,,0.00,WeatherDisplay:10.37,2013-01-25 08:53:00,
2013-01-25 03:58:00,12.4,-7.9,27.89,SE,134,0.0,0.0,39,0.00,CLR,,0.00,WeatherDisplay:10.37,2013-01-25 08:58:00,
2013-01-25 04:03:00,12.4,-7.9,27.89,SE,134,0.0,0.0,39,0.00,CLR,,0.00,WeatherDisplay:10.37,2013-01-25 09:03:00,
2013-01-25 04:08:00,12.4,-7.9,27.89,SE,134,0.0,0.0,39,0.00,CLR,,0.00,WeatherDisplay:10.37,2013-01-25 09:08:00,
2013-01-25 04:13:00,12.6,-7.8,27.89,SE,134,0.0,0.0,39,0.00,CLR,,0.00,WeatherDisplay:10.37,2013-01-25 09:13:00,
2013-01-25 04:18:00,12.6,-7.8,27.89,SE,136,0.0,0.0,39,0.00,CLR,,0.00,WeatherDisplay:10.37,2013-01-25 09:18:00,
2013-01-25 04:23:00,12.6,-7.8,27.89,SE,136,0.0,0.0,39,0.00,CLR,,0.00,WeatherDisplay:10.37,2013-01-25 09:23:00,
2013-01-25 04:28:00,12.6,-7.8,27.89,SE,136,0.0,0.0,39,0.00,CLR,,0.00,WeatherDisplay:10.37,2013-01-25 09:28:00,
2013-01-25 04:33:00,12.6,-7.8,27.89,SE,129,3.5,3.5,39,0.00,CLR,,0.00,WeatherDisplay:10.37,2013-01-25 09:33:00,
2013-01-25 04:38:00,12.6,-7.8,27.89,SE,129,2.3,0.0,39,0.00,CLR,,0.00,WeatherDisplay:10.37,2013-01-25 09:38:00,
2013-01-25 04:43:00,12.6,-7.8,27.89,ESE,123,3.1,3.1,39,0.00,CLR,,0.00,WeatherDisplay:10.37,2013-01-25 09:43:00,
2013-01-25 04:49:00,12.6,-7.8,27.89,ESE,123,2.3,0.0,39,0.00,CLR,,0.00,WeatherDisplay:10.37,2013-01-25 09:49:00,
2013-01-25 04:54:00,12.6,-7.8,27.89,ESE,117,3.5,0.0,39,0.00,CLR,,0.00,WeatherDisplay:10.37,2013-01-25 09:54:00,
2013-01-25 04:59:00,12.6,-7.8,27.89,ESE,116,0.0,0.0,39,0.00,CLR,,0.00,WeatherDisplay:10.37,2013-01-25 09:59:00,
2013-01-25 05:04:00,12.6,-7.8,27.89,ESE,112,0.0,0.0,39,0.00,CLR,,0.00,WeatherDisplay:10.37,2013-01-25 10:04:00,
2013-01-25 05:09:00,12.6,-7.8,27.89,ESE,121,3.5,0.0,39,0.00,CLR,,0.00,WeatherDisplay:10.37,2013-01-25 10:09:00,
2013-01-25 05:14:00,12.6,-7.8,27.89,ESE,121,0.0,0.0,39,0.00,CLR,,0.00,WeatherDisplay:10.37,2013-01-25 10:14:00,
2013-01-25 05:19:00,12.6,-7.8,27.89,ENE,75,0.0,0.0,39,0.00,CLR,,0.00,WeatherDisplay:10.37,2013-01-25 10:19:00,
2013-01-25 05:24:00,12.6,-7.8,27.89,ENE,75,0.0,0.0,39,0.00,CLR,,0.00,WeatherDisplay:10.37,2013-01-25 10:24:00,
2013-01-25 05:29:00,12.6,-7.8,27.89,East,93,0.0,0.0,39,0.00,CLR,,0.00,WeatherDisplay:10.37,2013-01-25 10:29:00,
2013-01-25 05:34:00,12.6,-7.8,27.89,East,93,0.0,0.0,39,0.00,CLR,,0.00,WeatherDisplay:10.37,2013-01-25 10:34:00,
2013-01-25 05:39:00,12.6,-7.8,27.89,East,93,0.0,0.0,39,0.00,CLR,,0.00,WeatherDisplay:10.37,2013-01-25 10:39:00,
2013-01-25 05:44:00,12.7,-7.6,27.89,East,93,0.0,0.0,39,0.00,CLR,,0.00,WeatherDisplay:10.37,2013-01-25 10:44:00,
2013-01-25 05:49:00,12.6,-7.8,27.89,ENE,63,0.0,0.0,39,0.00,CLR,,0.00,WeatherDisplay:10.37,2013-01-25 10:49:00,
2013-01-25 05:54:00,12.7,-7.6,27.89,ENE,63,0.0,0.0,39,0.00,CLR,,0.00,WeatherDisplay:10.37,2013-01-25 10:54:00,
2013-01-25 05:59:00,12.7,-7.6,27.89,SE,124,2.3,0.0,39,0.00,CLR,,0.00,WeatherDisplay:10.37,2013-01-25 10:59:00,
2013-01-25 06:04:00,12.9,-7.4,27.89,ENE,77,2.3,2.7,39,0.00,CLR,,0.00,WeatherDisplay:10.37,2013-01-25 11:04:00,
2013-01-25 06:09:00,12.9,-7.4,27.89,ESE,110,2.3,0.0,39,0.00,CLR,,0.00,WeatherDisplay:10.37,2013-01-25 11:09:00,
2013-01-25 06:14:00,12.9,-7.4,27.89,SE,125,2.3,0.0,39,0.00,CLR,,0.00,WeatherDisplay:10.37,2013-01-25 11:14:00,
2013-01-25 06:19:00,12.9,-7.4,27.89,SE,129,3.5,3.5,39,0.00,CLR,,0.00,WeatherDisplay:10.37,2013-01-25 11:19:00,
2013-01-25 06:24:00,12.9,-7.4,27.89,SE,135,3.5,0.0,39,0.00,CLR,,0.00,WeatherDisplay:10.37,2013-01-25 11:24:00,
2013-01-25 06:29:00,12.9,-7.4,27.89,SE,135,3.5,0.0,39,0.00,CLR,,0.00,WeatherDisplay:10.37,2013-01-25 11:29:00,
2013-01-25 06:34:00,12.9,-7.4,27.89,SE,130,0.0,0.0,39,0.00,CLR,,0.00,WeatherDisplay:10.37,2013-01-25 11:34:00,
2013-01-25 06:39:00,12.9,-7.4,27.89,ESE,116,2.3,2.3,39,0.00,CLR,,0.00,WeatherDisplay:10.37,2013-01-25 11:39:00,
2013-01-25 06:44:00,13.3,-7.1,27.89,ESE,112,3.5,3.5,39,0.00,CLR,,0.00,WeatherDisplay:10.37,2013-01-25 11:44:00,
2013-01-25 06:49:00,13.3,-7.1,27.89,ESE,116,0.0,0.0,39,0.00,CLR,,0.00,WeatherDisplay:10.37,2013-01-25 11:49:00,
2013-01-25 06:54:00,13.3,-7.1,27.89,NE,51,4.0,4.0,39,0.00,CLR,,0.00,WeatherDisplay:10.37,2013-01-25 11:54:00,
2013-01-25 06:59:00,13.3,-7.1,27.89,SE,127,3.5,0.0,39,0.00,CLR,,0.00,WeatherDisplay:10.37,2013-01-25 11:59:00,
2013-01-25 07:04:00,13.3,-7.1,27.89,SE,127,0.0,0.0,39,0.00,CLR,,0.00,WeatherDisplay:10.37,2013-01-25 12:04:00,
2013-01-25 07:09:00,13.3,-7.1,27.89,SE,127,0.0,0.0,39,0.00,CLR,,0.00,WeatherDisplay:10.37,2013-01-25 12:09:00,
2013-01-25 07:14:00,13.3,-7.1,27.89,SE,127,0.0,0.0,39,0.00,CLR,,0.00,WeatherDisplay:10.37,2013-01-25 12:14:00,
2013-01-25 07:19:00,13.3,-7.1,27.89,SE,127,0.0,0.0,39,0.00,CLR,,0.00,WeatherDisplay:10.37,2013-01-25 12:19:00,
2013-01-25 07:24:00,13.3,-7.1,27.89,SE,127,0.0,0.0,39,0.00,CLR,,0.00,WeatherDisplay:10.37,2013-01-25 12:24:00,
2013-01-25 07:29:00,13.3,-7.1,27.89,SE,128,3.5,3.5,39,0.00,CLR,,0.00,WeatherDisplay:10.37,2013-01-25 12:29:00,
2013-01-25 07:34:00,13.3,-7.1,27.89,ESE,123,3.5,3.6,39,0.00,CLR,,0.00,WeatherDisplay:10.37,2013-01-25 12:34:00,
2013-01-25 07:39:00,13.3,-7.1,27.89,SE,124,3.6,3.6,39,0.00,CLR,,0.00,WeatherDisplay:10.37,2013-01-25 12:39:00,
2013-01-25 07:44:00,13.3,-7.1,27.89,SE,146,3.5,4.0,39,0.00,CLR,,0.00,WeatherDisplay:10.37,2013-01-25 12:44:00,
2013-01-25 07:49:00,13.3,-7.1,27.89,NE,50,3.5,3.5,39,0.00,CLR,,0.00,WeatherDisplay:10.37,2013-01-25 12:49:00,
2013-01-25 07:54:00,13.3,-7.1,27.89,NE,53,2.3,3.1,39,0.00,CLR,,0.00,WeatherDisplay:10.37,2013-01-25 12:54:00,
2013-01-25 07:59:00,13.3,-7.1,27.89,ENE,67,8.1,0.0,39,0.00,CLR,,0.00,WeatherDisplay:10.37,2013-01-25 12:59:00,
2013-01-25 08:04:00,13.3,-7.1,27.89,ENE,67,8.1,0.0,39,0.00,CLR,,0.00,WeatherDisplay:10.37,2013-01-25 13:04:00,
2013-01-25 08:09:00,13.5,-6.9,27.89,NE,45,3.5,0.0,39,0.00,CLR,,0.00,WeatherDisplay:10.37,2013-01-25 13:09:00,
2013-01-25 08:14:00,13.3,-7.1,27.89,ESE,121,8.1,8.1,39,0.00,CLR,,0.00,WeatherDisplay:10.37,2013-01-25 13:14:00,
2013-01-25 08:19:00,13.5,-6.9,27.89,NE,51,3.5,3.5,39,0.00,CLR,,0.00,WeatherDisplay:10.37,2013-01-25 13:19:00,
2013-01-25 08:24:00,13.5,-6.9,27.89,SE,128,5.8,5.8,39,0.00,CLR,,0.00,WeatherDisplay:10.37,2013-01-25 13:24:00,
2013-01-25 08:29:00,13.6,-6.8,27.89,SE,130,3.5,3.5,39,0.00,CLR,,0.00,WeatherDisplay:10.37,2013-01-25 13:29:00,
2013-01-25 08:34:00,13.8,-5.1,27.89,SE,125,5.8,5.8,42,0.00,CLR,,0.00,WeatherDisplay:10.37,2013-01-25 13:34:00,
2013-01-25 08:39:00,14.2,-5.3,27.89,ESE,116,3.5,0.0,41,0.00,CLR,,0.00,WeatherDisplay:10.37,2013-01-25 13:39:00,
2013-01-25 08:44:00,14.2,-6.3,27.89,ESE,104,3.6,3.6,39,0.00,CLR,,0.00,WeatherDisplay:10.37,2013-01-25 13:44:00,
2013-01-25 08:49:00,14.0,-6.5,27.89,ESE,103,2.3,2.3,39,0.00,CLR,,0.00,WeatherDisplay:10.37,2013-01-25 13:49:00,
2013-01-25 08:54:00,14.2,-6.3,27.89,ESE,122,3.6,3.6,39,0.00,CLR,,0.00,WeatherDisplay:10.37,2013-01-25 13:54:00,
2013-01-25 08:59:00,14.2,-6.3,27.89,SE,124,4.0,4.0,39,0.00,CLR,,0.00,WeatherDisplay:10.37,2013-01-25 13:59:00,
2013-01-25 09:04:00,14.2,-6.3,27.89,SE,124,3.5,3.5,39,0.00,CLR,,0.00,WeatherDisplay:10.37,2013-01-25 14:04:00,
2013-01-25 09:09:00,14.2,-6.3,27.89,SE,128,3.5,3.5,39,0.00,CLR,,0.00,WeatherDisplay:10.37,2013-01-25 14:09:00,
2013-01-25 09:14:00,14.5,-6.0,27.89,East,98,3.5,0.0,39,0.00,CLR,,0.00,WeatherDisplay:10.37,2013-01-25 14:14:00,
2013-01-25 09:19:00,14.7,-5.8,27.89,ESE,107,0.0,0.0,39,0.00,CLR,,0.00,WeatherDisplay:10.37,2013-01-25 14:19:00,
2013-01-25 09:24:00,14.9,-5.6,27.89,ESE,121,3.5,3.5,39,0.00,CLR,,0.00,WeatherDisplay:10.37,2013-01-25 14:24:00,
2013-01-25 09:29:00,14.5,-4.9,27.89,SE,145,0.0,0.0,41,0.00,CLR,,0.00,WeatherDisplay:10.37,2013-01-25 14:29:00,
2013-01-25 09:34:00,14.7,-4.8,27.89,ESE,121,2.3,0.0,41,0.00,CLR,,0.00,WeatherDisplay:10.37,2013-01-25 14:34:00,
2013-01-25 09:39:00,14.5,-4.9,27.89,ESE,121,0.0,0.0,41,0.00,CLR,,0.00,WeatherDisplay:10.37,2013-01-25 14:39:00,
2013-01-25 09:44:00,14.5,-4.9,27.89,SE,130,3.5,3.5,41,0.00,CLR,,0.00,WeatherDisplay:10.37,2013-01-25 14:44:00,
2013-01-25 09:49:00,14.4,-5.1,27.89,East,83,2.3,0.0,41,0.00,CLR,,0.00,WeatherDisplay:10.37,2013-01-25 14:49:00,
2013-01-25 09:54:00,14.4,-5.1,27.89,ESE,110,2.3,0.0,41,0.00,CLR,,0.00,WeatherDisplay:10.37,2013-01-25 14:54:00,
2013-01-25 09:59:00,14.4,-5.1,27.89,ESE,109,0.0,0.0,41,0.00,CLR,,0.00,WeatherDisplay:10.37,2013-01-25 14:59:00,
2013-01-25 10:04:00,14.5,-4.9,27.89,North,0,0.0,0.0,41,0.00,CLR,,0.00,WeatherDisplay:10.37,2013-01-25 15:04:00,
2013-01-25 10:09:00,14.4,-5.1,27.89,East,85,3.5,0.0,41,0.00,CLR,,0.00,WeatherDisplay:10.37,2013-01-25 15:09:00,
2013-01-25 10:14:00,14.2,-5.3,27.89,ENE,71,3.5,0.0,41,0.00,CLR,,0.00,WeatherDisplay:10.37,2013-01-25 15:14:00,
2013-01-25 10:19:00,14.2,-5.3,27.89,SE,129,4.0,0.0,41,0.00,CLR,,0.00,WeatherDisplay:10.37,2013-01-25 15:19:00,
2013-01-25 10:24:00,14.2,-3.8,27.89,SE,130,3.5,3.5,44,0.00,CLR,,0.00,WeatherDisplay:10.37,2013-01-25 15:24:00,
2013-01-25 10:29:00,14.2,-3.8,27.89,ESE,122,3.5,0.0,44,0.00,CLR,,0.00,WeatherDisplay:10.37,2013-01-25 15:29:00,
2013-01-25 10:34:00,14.5,-2.5,27.89,NNW,340,3.5,3.5,46,0.00,CLR,,0.00,WeatherDisplay:10.37,2013-01-25 15:34:00,
2013-01-25 10:39:00,14.5,-2.5,27.89,NNE,19,3.5,3.5,46,0.00,CLR,,0.00,WeatherDisplay:10.37,2013-01-25 15:39:00,
2013-01-25 10:44:00,14.0,-2.6,27.89,WSW,252,4.6,4.6,47,0.00,CLR,,0.00,WeatherDisplay:10.37,2013-01-25 15:44:00,
2013-01-25 10:49:00,14.2,-2.8,27.89,East,97,3.5,0.0,46,0.00,CLR,,0.00,WeatherDisplay:10.37,2013-01-25 15:49:00,
2013-01-25 10:54:00,14.2,-2.8,27.89,North,357,3.5,3.5,46,0.00,CLR,,0.00,WeatherDisplay:10.37,2013-01-25 15:54:00,
2013-01-25 10:59:00,14.2,-1.5,27.89,ENE,78,4.6,4.6,49,0.00,CLR,,0.00,WeatherDisplay:10.37,2013-01-25 15:59:00,
2013-01-25 11:04:00,14.0,-1.7,27.89,SSE,159,5.8,5.8,49,0.00,CLR,,0.00,WeatherDisplay:10.37,2013-01-25 16:04:00,
2013-01-25 11:09:00,14.2,-1.5,27.89,SE,132,3.5,0.0,49,0.00,CLR,,0.00,WeatherDisplay:10.37,2013-01-25 16:09:00,
2013-01-25 11:14:00,14.2,-1.5,27.89,East,82,3.5,3.5,49,0.00,CLR,,0.00,WeatherDisplay:10.37,2013-01-25 16:14:00,
2013-01-25 11:19:00,14.4,-1.3,27.89,ENE,62,3.5,0.0,49,0.00,CLR,,0.00,WeatherDisplay:10.37,2013-01-25 16:19:00,
2013-01-25 11:24:00,14.5,-1.2,27.89,SE,126,4.0,4.0,49,0.00,CLR,,0.00,WeatherDisplay:10.37,2013-01-25 16:24:00,
2013-01-25 11:29:00,14.9,-0.8,27.89,ENE,65,3.5,3.5,49,0.00,CLR,,0.00,WeatherDisplay:10.37,2013-01-25 16:29:00,
2013-01-25 11:34:00,15.1,-0.7,27.89,ENE,61,2.3,0.0,49,0.00,CLR,,0.00,WeatherDisplay:10.37,2013-01-25 16:34:00,
2013-01-25 11:39:00,15.1,-2.0,27.89,ESE,109,2.3,2.3,46,0.00,CLR,,0.00,WeatherDisplay:10.37,2013-01-25 16:39:00,
2013-01-25 11:44:00,15.3,-1.9,27.89,ESE,119,0.0,0.0,46,0.00,CLR,,0.00,WeatherDisplay:10.37,2013-01-25 16:44:00,
2013-01-25 11:49:00,16.0,-1.2,27.89,ENE,64,0.0,0.0,46,0.00,CLR,,0.00,WeatherDisplay:10.37,2013-01-25 16:49:00,
2013-01-25 11:54:00,16.0,-1.2,27.89,NNW,344,0.0,0.0,46,0.00,CLR,,0.00,WeatherDisplay:10.37,2013-01-25 16:54:00,
2013-01-25 11:59:00,16.2,-1.0,27.89,ENE,60,3.5,3.5,46,0.00,CLR,,0.00,WeatherDisplay:10.37,2013-01-25 16:59:00,
2013-01-25 12:04:00,16.3,-0.9,27.89,SE,137,2.3,0.0,46,0.00,CLR,,0.00,WeatherDisplay:10.37,2013-01-25 17:04:00,
2013-01-25 12:09:00,16.3,-0.9,27.89,ENE,76,2.3,0.0,46,0.00,CLR,,0.00,WeatherDisplay:10.37,2013-01-25 17:09:00,
2013-01-25 12:14:00,16.5,-0.7,27.89,NNE,20,3.5,0.0,46,0.00,CLR,,0.00,WeatherDisplay:10.37,2013-01-25 17:14:00,
2013-01-25 12:19:00,16.5,-0.7,27.89,East,80,3.5,0.0,46,0.00,CLR,,0.00,WeatherDisplay:10.37,2013-01-25 17:19:00,
2013-01-25 12:24:00,16.7,-0.5,27.89,ENE,70,3.5,3.5,46,0.00,CLR,,0.00,WeatherDisplay:10.37,2013-01-25 17:24:00,
2013-01-25 12:29:00,17.2,-1.5,27.89,ESE,116,2.3,0.0,43,0.00,CLR,,0.00,WeatherDisplay:10.37,2013-01-25 17:29:00,
2013-01-25 12:34:00,17.6,-1.1,27.89,East,93,3.1,0.0,43,0.00,CLR,,0.00,WeatherDisplay:10.37,2013-01-25 17:34:00,
2013-01-25 12:39:00,17.6,-1.1,27.89,South,171,3.5,3.5,43,0.00,CLR,,0.00,WeatherDisplay:10.37,2013-01-25 17:39:00,
2013-01-25 12:44:00,18.0,-0.8,27.89,ESE,118,2.3,0.0,43,0.00,CLR,,0.00,WeatherDisplay:10.37,2013-01-25 17:44:00,
2013-01-25 12:49:00,18.3,-0.5,27.89,ENE,59,3.5,3.5,43,0.00,CLR,,0.00,WeatherDisplay:10.37,2013-01-25 17:49:00,
2013-01-25 12:54:00,18.1,-0.6,27.89,NE,50,2.3,0.0,43,0.00,CLR,,0.00,WeatherDisplay:10.37,2013-01-25 17:54:00,
2013-01-25 12:59:00,17.8,-1.0,27.89,WNW,297,3.5,3.5,43,0.00,CLR,,0.00,WeatherDisplay:10.37,2013-01-25 17:59:00,
2013-01-25 13:04:00,17.8,-1.0,27.89,NNW,344,2.3,0.0,43,0.00,CLR,,0.00,WeatherDisplay:10.37,2013-01-25 18:04:00,
2013-01-25 13:09:00,17.4,-1.3,27.89,East,91,3.5,0.0,43,0.00,CLR,,0.00,WeatherDisplay:10.37,2013-01-25 18:09:00,
2013-01-25 13:14:00,18.1,-0.6,27.89,ESE,120,3.6,3.6,43,0.00,CLR,,0.00,WeatherDisplay:10.37,2013-01-25 18:14:00,
2013-01-25 13:19:00,18.1,-0.6,27.89,NNE,22,3.6,0.0,43,0.00,CLR,,0.00,WeatherDisplay:10.37,2013-01-25 18:19:00,
2013-01-25 13:24:00,17.6,-1.1,27.89,NE,55,2.3,0.0,43,0.00,CLR,,0.00,WeatherDisplay:10.37,2013-01-25 18:24:00,
2013-01-25 13:29:00,17.4,-1.3,27.89,NE,50,3.5,0.0,43,0.00,CLR,,0.00,WeatherDisplay:10.37,2013-01-25 18:29:00,
2013-01-25 13:34:00,17.6,-1.1,27.89,East,85,3.5,3.5,43,0.00,CLR,,0.00,WeatherDisplay:10.37,2013-01-25 18:34:00,
2013-01-25 13:39:00,17.8,-1.0,27.89,East,85,0.0,0.0,43,0.00,CLR,,0.00,WeatherDisplay:10.37,2013-01-25 18:39:00,
2013-01-25 13:44:00,18.3,0.5,27.89,East,85,3.1,0.0,45,0.00,CLR,,0.00,WeatherDisplay:10.37,2013-01-25 18:44:00,
2013-01-25 13:49:00,18.0,-0.8,27.89,ENE,57,4.0,4.0,43,0.00,CLR,,0.00,WeatherDisplay:10.37,2013-01-25 18:49:00,
2013-01-25 13:54:00,18.0,-0.8,27.89,NNE,29,2.3,0.0,43,0.00,CLR,,0.00,WeatherDisplay:10.37,2013-01-25 18:54:00,
2013-01-25 13:59:00,18.5,0.7,27.89,North,353,0.0,0.0,45,0.00,CLR,,0.00,WeatherDisplay:10.37,2013-01-25 18:59:00,
2013-01-25 14:04:00,18.5,-0.3,27.89,ESE,119,3.5,0.0,43,0.00,CLR,,0.00,WeatherDisplay:10.37,2013-01-25 19:04:00,
2013-01-25 14:09:00,18.5,-0.3,27.89,SE,126,2.3,0.0,43,0.00,CLR,,0.00,WeatherDisplay:10.37,2013-01-25 19:09:00,
2013-01-25 14:14:00,19.0,0.2,27.89,ESE,103,0.0,0.0,43,0.00,CLR,,0.00,WeatherDisplay:10.37,2013-01-25 19:14:00,
2013-01-25 14:20:00,19.0,0.2,27.89,NNE,33,3.5,0.0,43,0.00,CLR,,0.00,WeatherDisplay:10.37,2013-01-25 19:20:00,
2013-01-25 14:25:00,18.9,0.0,27.89,East,81,3.5,0.0,43,0.00,CLR,,0.00,WeatherDisplay:10.37,2013-01-25 19:25:00,
2013-01-25 14:30:00,19.0,0.2,27.89,NNW,339,2.3,0.0,43,0.00,CLR,,0.00,WeatherDisplay:10.37,2013-01-25 19:30:00,
2013-01-25 14:35:00,19.0,0.2,27.89,North,1,0.0,0.0,43,0.00,CLR,,0.00,WeatherDisplay:10.37,2013-01-25 19:35:00,
2013-01-25 14:40:00,19.0,0.2,27.89,NNE,28,2.3,0.0,43,0.00,CLR,,0.00,WeatherDisplay:10.37,2013-01-25 19:40:00,
2013-01-25 14:45:00,18.7,-0.1,27.89,NE,34,0.0,0.0,43,0.00,CLR,,0.00,WeatherDisplay:10.37,2013-01-25 19:45:00,
2013-01-25 14:50:00,18.7,-0.1,27.89,NNE,22,0.0,0.0,43,0.00,CLR,,0.00,WeatherDisplay:10.37,2013-01-25 19:50:00,
2013-01-25 14:55:00,19.0,0.2,27.89,ENE,74,0.0,0.0,43,0.00,CLR,,0.00,WeatherDisplay:10.37,2013-01-25 19:55:00,
2013-01-25 15:00:00,19.2,0.3,27.89,East,94,2.2,0.0,43,0.00,CLR,,0.00,WeatherDisplay:10.37,2013-01-25 20:00:00,
2013-01-25 15:05:00,19.0,0.2,27.89,East,100,2.3,2.3,43,0.00,CLR,,0.00,WeatherDisplay:10.37,2013-01-25 20:05:00,
2013-01-25 15:10:00,19.2,0.3,27.89,East,100,0.0,0.0,43,0.00,CLR,,0.00,WeatherDisplay:10.37,2013-01-25 20:10:00,
2013-01-25 15:15:00,19.9,0.5,27.89,East,101,0.0,0.0,42,0.00,CLR,,0.00,WeatherDisplay:10.37,2013-01-25 20:15:00,
2013-01-25 15:20:00,20.1,0.7,27.89,East,80,3.5,0.0,42,0.00,CLR,,0.00,WeatherDisplay:10.37,2013-01-25 20:20:00,
2013-01-25 15:25:00,20.3,0.8,27.89,East,79,2.3,0.0,42,0.00,CLR,,0.00,WeatherDisplay:10.37,2013-01-25 20:25:00,
2013-01-25 15:30:00,20.7,1.2,27.89,ENE,65,0.0,0.0,42,0.00,CLR,,0.00,WeatherDisplay:10.37,2013-01-25 20:30:00,
2013-01-25 15:35:00,19.9,0.5,27.89,ENE,72,2.3,0.0,42,0.00,CLR,,0.00,WeatherDisplay:10.37,2013-01-25 20:35:00,
2013-01-25 15:40:00,20.5,1.0,27.89,ENE,62,2.3,0.0,42,0.00,CLR,,0.00,WeatherDisplay:10.37,2013-01-25 20:40:00,
2013-01-25 15:45:00,20.3,0.8,27.89,NE,51,0.0,0.0,42,0.00,CLR,,0.00,WeatherDisplay:10.37,2013-01-25 20:45:00,
2013-01-25 15:50:00,20.3,0.8,27.89,East,84,2.3,0.0,42,0.00,CLR,,0.00,WeatherDisplay:10.37,2013-01-25 20:50:00,
2013-01-25 15:55:00,19.8,0.3,27.89,East,91,0.0,0.0,42,0.00,CLR,,0.00,WeatherDisplay:10.37,2013-01-25 20:55:00,
2013-01-25 16:00:00,19.2,0.3,27.89,ESE,110,0.0,0.0,43,0.00,CLR,,0.00,WeatherDisplay:10.37,2013-01-25 21:00:00,
2013-01-25 16:05:00,19.0,0.2,27.89,ESE,110,0.0,0.0,43,0.00,CLR,,0.00,WeatherDisplay:10.37,2013-01-25 21:05:00,
2013-01-25 16:10:00,18.7,-0.1,27.89,ESE,110,0.0,0.0,43,0.00,CLR,,0.00,WeatherDisplay:10.37,2013-01-25 21:10:00,
2013-01-25 16:15:00,18.5,-0.3,27.89,ESE,110,0.0,0.0,43,0.00,CLR,,0.00,WeatherDisplay:10.37,2013-01-25 21:15:00,
2013-01-25 16:20:00,18.5,-0.3,27.89,ESE,110,0.0,0.0,43,0.00,CLR,,0.00,WeatherDisplay:10.37,2013-01-25 21:20:00,
2013-01-25 16:25:00,18.3,-0.5,27.89,ESE,110,0.0,0.0,43,0.00,CLR,,0.00,WeatherDisplay:10.37,2013-01-25 21:25:00,
2013-01-25 16:30:00,18.1,-0.6,27.89,ESE,110,0.0,0.0,43,0.00,CLR,,0.00,WeatherDisplay:10.37,2013-01-25 21:30:00,
2013-01-25 16:35:00,18.1,-0.6,27.89,SE,135,0.0,0.0,43,0.00,CLR,,0.00,WeatherDisplay:10.37,2013-01-25 21:35:00,
2013-01-25 16:40:00,17.8,0.0,27.89,SE,135,0.0,0.0,45,0.00,CLR,,0.00,WeatherDisplay:10.37,2013-01-25 21:40:00,
2013-01-25 16:45:00,17.6,0.3,27.89,SE,135,0.0,0.0,46,0.00,CLR,,0.00,WeatherDisplay:10.37,2013-01-25 21:45:00,
2013-01-25 16:50:00,17.6,0.3,27.89,SE,135,0.0,0.0,46,0.00,CLR,,0.00,WeatherDisplay:10.37,2013-01-25 21:50:00,
2013-01-25 16:55:00,17.8,0.0,27.89,SE,135,0.0,0.0,45,0.00,CLR,,0.00,WeatherDisplay:10.37,2013-01-25 21:55:00,
2013-01-25 17:00:00,18.1,1.7,27.89,SE,135,0.0,0.0,48,0.00,CLR,,0.00,WeatherDisplay:10.37,2013-01-25 22:00:00,
2013-01-25 17:05:00,18.1,1.7,27.89,SE,135,0.0,0.0,48,0.00,CLR,,0.00,WeatherDisplay:10.37,2013-01-25 22:05:00,
2013-01-25 17:10:00,18.0,1.5,27.89,SE,135,0.0,0.0,48,0.00,CLR,,0.00,WeatherDisplay:10.37,2013-01-25 22:10:00,
2013-01-25 17:15:00,18.0,1.5,27.89,SE,135,0.0,0.0,48,0.00,CLR,,0.00,WeatherDisplay:10.37,2013-01-25 22:15:00,
2013-01-25 17:20:00,17.8,1.4,27.89,SE,135,0.0,0.0,48,0.00,CLR,,0.00,WeatherDisplay:10.37,2013-01-25 22:20:00,
2013-01-25 17:25:00,17.6,1.2,27.89,SE,135,0.0,0.0,48,0.00,CLR,,0.00,WeatherDisplay:10.37,2013-01-25 22:25:00,
2013-01-25 17:30:00,17.6,2.5,27.89,SE,135,0.0,0.0,51,0.00,CLR,,0.00,WeatherDisplay:10.37,2013-01-25 22:30:00,
2013-01-25 17:35:00,17.6,2.5,27.89,SE,135,0.0,0.0,51,0.00,CLR,,0.00,WeatherDisplay:10.37,2013-01-25 22:35:00,
2013-01-25 17:40:00,17.6,2.5,27.89,SE,135,0.0,0.0,51,0.00,CLR,,0.00,WeatherDisplay:10.37,2013-01-25 22:40:00,
2013-01-25 17:45:00,17.6,3.3,27.89,SE,135,0.0,0.0,53,0.00,CLR,,0.00,WeatherDisplay:10.37,2013-01-25 22:45:00,
2013-01-25 17:50:00,17.6,3.3,27.89,SE,135,0.0,0.0,53,0.00,CLR,,0.00,WeatherDisplay:10.37,2013-01-25 22:50:00,
2013-01-25 17:55:00,17.4,3.2,27.89,SE,135,0.0,0.0,53,0.00,CLR,,0.00,WeatherDisplay:10.37,2013-01-25 22:55:00,
2013-01-25 18:00:00,17.4,3.2,27.89,SE,135,0.0,0.0,53,0.00,CLR,,0.00,WeatherDisplay:10.37,2013-01-25 23:00:00,
2013-01-25 18:05:00,17.4,3.2,27.89,SE,135,0.0,0.0,53,0.00,CLR,,0.00,WeatherDisplay:10.37,2013-01-25 23:05:00,
2013-01-25 18:10:00,17.4,3.6,27.89,SE,135,0.0,0.0,54,0.00,CLR,,0.00,WeatherDisplay:10.37,2013-01-25 23:10:00,
2013-01-25 18:15:00,17.4,3.6,27.89,SE,135,0.0,0.0,54,0.00,CLR,,0.00,WeatherDisplay:10.37,2013-01-25 23:15:00,
2013-01-25 18:20:00,17.4,3.6,27.89,SE,135,0.0,0.0,54,0.00,CLR,,0.00,WeatherDisplay:10.37,2013-01-25 23:20:00,
2013-01-25 18:25:00,17.4,3.6,27.89,SE,135,0.0,0.0,54,0.00,CLR,,0.00,WeatherDisplay:10.37,2013-01-25 23:25:00,
2013-01-25 18:30:00,17.4,3.6,27.89,SE,135,0.0,0.0,54,0.00,CLR,,0.00,WeatherDisplay:10.37,2013-01-25 23:30:00,
2013-01-25 18:35:00,17.4,3.6,27.89,SE,135,0.0,0.0,54,0.00,CLR,,0.00,WeatherDisplay:10.37,2013-01-25 23:35:00,
2013-01-25 18:40:00,17.6,3.8,27.89,SE,135,0.0,0.0,54,0.00,CLR,,0.00,WeatherDisplay:10.37,2013-01-25 23:40:00,
2013-01-25 18:45:00,17.6,3.8,27.89,SE,135,0.0,0.0,54,0.00,CLR,,0.00,WeatherDisplay:10.37,2013-01-25 23:45:00,
2013-01-25 18:50:00,17.6,3.8,27.89,SE,135,0.0,0.0,54,0.00,CLR,,0.00,WeatherDisplay:10.37,2013-01-25 23:50:00,
2013-01-25 18:55:00,17.8,3.9,27.89,SE,135,0.0,0.0,54,0.00,CLR,,0.00,WeatherDisplay:10.37,2013-01-25 23:55:00,
2013-01-25 19:00:00,17.8,3.9,27.89,SE,135,0.0,0.0,54,0.00,CLR,,0.00,WeatherDisplay:10.37,2013-01-26 00:00:00,
2013-01-25 19:05:00,17.8,3.9,27.89,SE,135,0.0,0.0,54,0.00,CLR,,0.00,WeatherDisplay:10.37,2013-01-26 00:05:00,
2013-01-25 19:10:00,17.8,3.9,27.89,SE,135,0.0,0.0,54,0.00,CLR,,0.00,WeatherDisplay:10.37,2013-01-26 00:10:00,
2013-01-25 19:15:00,17.6,4.2,27.89,SE,135,0.0,0.0,55,0.00,CLR,,0.00,WeatherDisplay:10.37,2013-01-26 00:15:00,
2013-01-25 19:20:00,17.8,3.9,27.89,SE,135,0.0,0.0,54,0.00,CLR,,0.00,WeatherDisplay:10.37,2013-01-26 00:20:00,
2013-01-25 19:25:00,17.6,4.2,27.89,SE,135,0.0,0.0,55,0.00,CLR,,0.00,WeatherDisplay:10.37,2013-01-26 00:25:00,
2013-01-25 19:30:00,17.6,4.2,27.89,SE,135,0.0,0.0,55,0.00,CLR,,0.00,WeatherDisplay:10.37,2013-01-26 00:30:00,
2013-01-25 19:35:00,17.6,4.2,27.89,SE,135,0.0,0.0,55,0.00,CLR,,0.00,WeatherDisplay:10.37,2013-01-26 00:35:00,
2013-01-25 19:40:00,17.6,4.2,27.89,SE,135,0.0,0.0,55,0.00,CLR,,0.00,WeatherDisplay:10.37,2013-01-26 00:40:00,
2013-01-25 19:45:00,17.8,4.3,27.89,SE,135,0.0,0.0,55,0.00,CLR,,0.00,WeatherDisplay:10.37,2013-01-26 00:45:00,
2013-01-25 19:50:00,17.8,4.3,27.89,SE,135,0.0,0.0,55,0.00,CLR,,0.00,WeatherDisplay:10.37,2013-01-26 00:50:00,
2013-01-25 19:55:00,17.8,4.3,27.89,SE,130,0.0,0.0,55,0.00,CLR,,0.00,WeatherDisplay:10.37,2013-01-26 00:55:00,
2013-01-25 20:00:00,17.6,4.2,27.89,SE,135,0.0,0.0,55,0.00,CLR,,0.00,WeatherDisplay:10.37,2013-01-26 01:00:00,
2013-01-25 20:05:00,17.8,4.3,27.89,SE,135,0.0,0.0,55,0.00,CLR,,0.00,WeatherDisplay:10.37,2013-01-26 01:05:00,
2013-01-25 20:10:00,17.6,4.2,27.89,SE,135,0.0,0.0,55,0.00,CLR,,0.00,WeatherDisplay:10.37,2013-01-26 01:10:00,
2013-01-25 20:15:00,17.8,4.3,27.89,SE,135,0.0,0.0,55,0.00,CLR,,0.00,WeatherDisplay:10.37,2013-01-26 01:15:00,
2013-01-25 20:20:00,17.8,4.3,27.89,SE,135,0.0,0.0,55,0.00,CLR,,0.00,WeatherDisplay:10.37,2013-01-26 01:20:00,
2013-01-25 20:25:00,17.8,4.3,27.89,SE,135,0.0,0.0,55,0.00,CLR,,0.00,WeatherDisplay:10.37,2013-01-26 01:25:00,
2013-01-25 20:30:00,17.8,4.3,27.89,SE,129,0.0,0.0,55,0.00,CLR,,0.00,WeatherDisplay:10.37,2013-01-26 01:30:00,
2013-01-25 20:35:00,17.8,4.3,27.89,SE,135,0.0,0.0,55,0.00,CLR,,0.00,WeatherDisplay:10.37,2013-01-26 01:35:00,
2013-01-25 20:40:00,17.8,4.3,27.89,SE,135,0.0,0.0,55,0.00,CLR,,0.00,WeatherDisplay:10.37,2013-01-26 01:40:00,
2013-01-25 20:45:00,17.8,4.7,27.89,SE,135,0.0,0.0,56,0.00,CLR,,0.00,WeatherDisplay:10.37,2013-01-26 01:45:00,
2013-01-25 20:50:00,17.8,4.7,27.89,SE,135,0.0,0.0,56,0.00,CLR,,0.00,WeatherDisplay:10.37,2013-01-26 01:50:00,
2013-01-25 20:55:00,17.8,4.7,27.89,SE,135,0.0,0.0,56,0.00,CLR,,0.00,WeatherDisplay:10.37,2013-01-26 01:55:00,
2013-01-25 21:00:00,17.8,4.7,27.89,SE,135,0.0,0.0,56,0.00,CLR,,0.00,WeatherDisplay:10.37,2013-01-26 02:00:00,
2013-01-25 21:05:00,17.8,4.7,27.89,SE,135,0.0,0.0,56,0.00,CLR,,0.00,WeatherDisplay:10.37,2013-01-26 02:05:00,
2013-01-25 21:10:00,17.8,4.7,27.89,SE,135,0.0,0.0,56,0.00,CLR,,0.00,WeatherDisplay:10.37,2013-01-26 02:10:00,
2013-01-25 21:15:00,17.8,4.7,27.89,SE,135,0.0,0.0,56,0.00,CLR,,0.00,WeatherDisplay:10.37,2013-01-26 02:15:00,
2013-01-25 21:20:00,17.8,4.7,27.89,SE,135,0.0,0.0,56,0.00,CLR,,0.00,WeatherDisplay:10.37,2013-01-26 02:20:00,
2013-01-25 21:25:00,17.8,4.7,27.89,SE,135,0.0,0.0,56,0.00,CLR,,0.00,WeatherDisplay:10.37,2013-01-26 02:25:00,
2013-01-25 21:30:00,17.8,5.1,27.89,SE,135,0.0,0.0,57,0.00,CLR,,0.00,WeatherDisplay:10.37,2013-01-26 02:30:00,
2013-01-25 21:35:00,17.8,5.1,27.89,SE,135,0.0,0.0,57,0.00,CLR,,0.00,WeatherDisplay:10.37,2013-01-26 02:35:00,
2013-01-25 21:40:00,17.8,5.1,27.89,SE,135,0.0,0.0,57,0.00,CLR,,0.00,WeatherDisplay:10.37,2013-01-26 02:40:00,
2013-01-25 21:45:00,17.8,5.1,27.89,SE,135,0.0,0.0,57,0.00,CLR,,0.00,WeatherDisplay:10.37,2013-01-26 02:45:00,
2013-01-25 21:50:00,17.8,5.1,27.89,SE,135,0.0,0.0,57,0.00,CLR,,0.00,WeatherDisplay:10.37,2013-01-26 02:50:00,
2013-01-25 21:55:00,17.8,5.1,27.89,SE,135,0.0,0.0,57,0.00,CLR,,0.00,WeatherDisplay:10.37,2013-01-26 02:55:00,
2013-01-25 22:00:00,17.8,5.1,27.89,SE,141,0.0,0.0,57,0.00,CLR,,0.00,WeatherDisplay:10.37,2013-01-26 03:00:00,
2013-01-25 22:05:00,17.8,5.1,27.89,SE,141,0.0,0.0,57,0.00,CLR,,0.00,WeatherDisplay:10.37,2013-01-26 03:05:00,
2013-01-25 22:10:00,17.8,5.1,27.89,SE,138,0.0,0.0,57,0.00,CLR,,0.00,WeatherDisplay:10.37,2013-01-26 03:10:00,
2013-01-25 22:15:00,18.0,5.3,27.89,SE,138,0.0,0.0,57,0.00,CLR,,0.00,WeatherDisplay:10.37,2013-01-26 03:15:00,
2013-01-25 22:20:00,18.0,5.3,27.89,SE,138,0.0,0.0,57,0.00,CLR,,0.00,WeatherDisplay:10.37,2013-01-26 03:20:00,
2013-01-25 22:25:00,18.0,5.3,27.89,SE,138,0.0,0.0,57,0.00,CLR,,0.00,WeatherDisplay:10.37,2013-01-26 03:25:00,
2013-01-25 22:30:00,18.0,5.3,27.89,SE,138,0.0,0.0,57,0.00,CLR,,0.00,WeatherDisplay:10.37,2013-01-26 03:30:00,
2013-01-25 22:35:00,18.0,5.3,27.89,SE,142,0.0,0.0,57,0.00,CLR,,0.00,WeatherDisplay:10.37,2013-01-26 03:35:00,
2013-01-25 22:40:00,18.1,5.4,27.89,SE,142,0.0,0.0,57,0.00,CLR,,0.00,WeatherDisplay:10.37,2013-01-26 03:40:00,
2013-01-25 22:45:00,18.1,5.8,27.89,South,188,0.0,0.0,58,0.00,CLR,,0.00,WeatherDisplay:10.37,2013-01-26 03:45:00,
2013-01-25 22:50:00,18.1,5.8,27.89,South,169,0.0,0.0,58,0.00,CLR,,0.00,WeatherDisplay:10.37,2013-01-26 03:50:00,
2013-01-25 22:55:00,18.1,5.8,27.89,SW,230,0.0,0.0,58,0.00,CLR,,0.00,WeatherDisplay:10.37,2013-01-26 03:55:00,
2013-01-25 23:00:00,18.1,6.2,27.89,South,189,3.5,0.0,59,0.00,CLR,,0.00,WeatherDisplay:10.37,2013-01-26 04:00:00,
2013-01-25 23:05:00,18.3,6.0,27.89,SW,229,0.0,0.0,58,0.00,CLR,,0.00,WeatherDisplay:10.37,2013-01-26 04:05:00,
2013-01-25 23:10:00,18.3,6.4,27.89,WSW,252,0.0,0.0,59,0.00,CLR,,0.00,WeatherDisplay:10.37,2013-01-26 04:10:00,
2013-01-25 23:15:00,18.3,6.4,27.89,WSW,250,0.0,0.0,59,0.00,CLR,,0.00,WeatherDisplay:10.37,2013-01-26 04:15:00,
2013-01-25 23:20:00,18.3,6.4,27.89,WNW,286,3.5,0.0,59,0.00,CLR,,0.00,WeatherDisplay:10.37,2013-01-26 04:20:00,
2013-01-25 23:25:00,18.3,6.4,27.89,WNW,282,2.3,0.0,59,0.00,CLR,,0.00,WeatherDisplay:10.37,2013-01-26 04:25:00,
2013-01-25 23:30:00,18.5,6.9,27.89,West,273,0.0,0.0,60,0.00,CLR,,0.00,WeatherDisplay:10.37,2013-01-26 04:30:00,
2013-01-25 23:35:00,18.5,6.9,27.89,West,273,0.0,0.0,60,0.00,CLR,,0.00,WeatherDisplay:10.37,2013-01-26 04:35:00,
2013-01-25 23:40:00,18.5,6.9,27.89,SSW,206,0.0,0.0,60,0.00,CLR,,0.00,WeatherDisplay:10.37,2013-01-26 04:40:00,
2013-01-25 23:45:00,18.5,6.9,27.89,South,187,0.0,0.0,60,0.00,CLR,,0.00,WeatherDisplay:10.37,2013-01-26 04:45:00,
2013-01-25 23:50:00,18.5,7.3,27.89,South,187,0.0,0.0,61,0.00,CLR,,0.00,WeatherDisplay:10.37,2013-01-26 04:50:00,
2013-01-25 23:55:00,18.5,7.3,27.89,West,265,0.0,0.0,61,0.00,CLR,,0.00,WeatherDisplay:10.37,2013-01-26 04:55:00,